This demonstration page uses our WeatherBlox Daily Observations layout. Learn more.

Left ArrowRight Arrow

Hourly Observations for August 13, 2022

Temp ( °F °C ) Dew Point ( °F °C ) Humidity (%) Winds ( mph kmh ) Pressure ( in mb ) Visibility ( mi km ) Precip ( " mm )
12:15 am 00:15 Clear 72 22 55 13 57 57 S 10 17 29.92 1013 10 16 0.00 0.00
12:35 am 00:35 Clear 71 21.6 55 13 58 58 S 9 15 29.92 1013 10 16 0.00 0.00
12:55 am 00:55 Clear 70 21.1 55 13 60 60 S 7 11 29.94 1014 10 16 0.00 0.00
1:15 am 01:15 Clear 69 20.7 55 13 61 61 S 8 13 29.94 1014 10 16 0.00 0.00
1:35 am 01:35 Clear 69 20.5 56 13.1 63 63 S 9 15 29.94 1014 10 16 0.00 0.00
1:55 am 01:55 Clear 69 20.5 55 13 62 62 S 9 15 29.93 1014 10 16 0.00 0.00
2:15 am 02:15 Clear 69 20.8 55 12.7 60 60 SSW 8 13 29.94 1014 10 16 0.00 0.00
2:35 am 02:35 Clear 71 21.6 55 12.5 56 56 SSW 10 17 29.93 1014 10 16 0.00 0.00
2:55 am 02:55 Partly Cloudy 71 21.5 55 12.6 57 57 SSW 9 15 29.93 1014 10 16 0.00 0.00
3:15 am 03:15 Partly Cloudy 70 21.3 55 12.7 58 58 SSW 9 15 29.95 1014 10 16 0.00 0.00
3:35 am 03:35 Partly Cloudy 70 21.2 55 12.7 58 58 SSW 10 17 29.95 1014 10 16 0.00 0.00
3:55 am 03:55 Clear 70 21 55 12.7 59 59 SSW 9 15 29.95 1014 10 16 0.00 0.00
4:15 am 04:15 Clear 69 20.6 55 12.9 61 61 SW 8 13 29.95 1014 10 16 0.00 0.00
4:35 am 04:35 Clear 68 20.2 55 13 63 63 SW 8 13 29.96 1014 10 16 0.00 0.00
4:55 am 04:55 Clear 68 20.1 55 13 64 64 SW 6 9 29.97 1015 10 16 0.00 0.00
5:15 am 05:15 Clear 69 20.3 55 13 63 63 W 6 9 29.96 1015 10 16 0.00 0.00
5:35 am 05:35 Clear 68 20 55 12.9 64 64 SW 6 9 29.97 1015 10 16 0.00 0.00
5:55 am 05:55 Mostly Cloudy 67 19.7 56 13.1 66 66 NNW 3 6 29.98 1015 10 16 0.00 0.00
6:15 am 06:15 Cloudy 65 18.5 57 14.1 76 76 W 3 6 29.99 1016 10 16 0.00 0.00
6:35 am 06:35 Mostly Cloudy 66 19 58 14.5 75 75 Calm 29.98 1015 10 16 0.00 0.00
6:55 am 06:55 Mostly Cloudy 66 18.7 59 15 79 79 Calm 29.99 1015 10 16 0.00 0.00
7:15 am 07:15 Partly Cloudy 66 18.7 59 15.1 80 80 Calm 29.99 1015 10 16 0.00 0.00
7:35 am 07:35 Sunny 66 18.7 60 15.4 81 81 Calm 29.99 1015 10 16 0.00 0.00
7:55 am 07:55 Sunny 68 20 60 15.5 75 75 Calm 29.98 1015 10 16 0.00 0.00
8:15 am 08:15 Sunny 70 21.1 61 15.9 72 72 SSW 3 6 29.97 1015 10 16 0.00 0.00
8:35 am 08:35 Sunny 72 22.3 60 15.6 66 66 SSW 3 6 29.96 1014 10 16 0.00 0.00
8:55 am 08:55 Sunny 73 22.9 61 15.9 65 65 SSW 5 7 29.94 1014 10 16 0.00 0.00
9:15 am 09:15 Sunny 77 24.9 59 15.2 55 55 SSW 7 11 29.93 1013 10 16 0.00 0.00
9:35 am 09:35 Sunny 79 25.9 60 15.6 53 53 SSW 7 11 29.93 1013 10 16 0.00 0.00
9:55 am 09:55 Sunny 80 26.8 60 15.4 50 50 WSW 5 7 29.92 1013 10 16 0.00 0.00
10:15 am 10:15 Sunny 81 27 61 16.2 52 52 NW 9 15 29.93 1014 10 16 0.00 0.00
10:35 am 10:35 Sunny 78 25.6 65 18.4 64 64 N 5 7 29.94 1014 10 16 0.00 0.00
10:55 am 10:55 Sunny 80 26.7 63 17.3 56 56 WNW 3 6 29.93 1014 10 16 0.00 0.00
11:15 am 11:15 Sunny 82 27.6 61 16.3 50 50 N 5 7 29.93 1013 10 16 0.00 0.00
11:35 am 11:35 Partly Cloudy 82 27.6 60 15.8 49 49 N 5 7 29.93 1013 10 16 0.00 0.00
11:55 am 11:55 Partly Cloudy 83 28.1 63 17.2 52 52 NNE 6 9 29.92 1013 10 16 0.00 0.00
12:15 pm 12:15 Sunny 83 28.5 64 17.7 52 52 NNE 9 15 29.92 1013 10 16 0.00 0.00
12:35 pm 12:35 Sunny 84 28.9 66 19 55 55 NNE 8 13 29.92 1013 10 16 0.00 0.00
12:55 pm 12:55 Sunny 85 29.5 67 19.6 55 55 NE 6 9 29.91 1013 10 16 0.00 0.00
1:15 pm 13:15 Sunny 86 30.2 68 19.8 54 54 NE 9 15 29.91 1013 10 16 0.00 0.00
1:35 pm 13:35 Sunny 86 30.1 69 20.3 56 56 NE 9 15 29.90 1012 10 16 0.00 0.00
1:55 pm 13:55 Sunny 87 30.8 67 19.7 52 52 ENE 12 19 29.89 1012 10 16 0.00 0.00
2:15 pm 14:15 Sunny 87 30.8 68 20.2 53 53 ENE 10 17 29.88 1012 10 16 0.00 0.00
2:55 pm 14:55 Sunny 89 31.5 69 20.6 53 53 E 12 19 29.88 1012 10 16 0.00 0.00
3:15 pm 15:15 Sunny 89 31.7 70 21 53 53 E 8 13 29.87 1012 10 16 0.00 0.00
3:35 pm 15:35 Sunny 89 31.8 69 20.5 51 51 E 9 15 29.86 1011 10 16 0.00 0.00
3:55 pm 15:55 Sunny 89 31.8 68 20.1 50 50 E 10 17 29.86 1011 10 16 0.00 0.00
4:15 pm 16:15 Sunny 89 31.9 68 20.1 50 50 E 12 19 29.84 1011 10 16 0.00 0.00
4:35 pm 16:35 Sunny 90 32 69 20.7 51 51 E 9 15 29.84 1011 10 16 0.00 0.00
4:55 pm 16:55 Sunny 89 31.9 69 20.3 50 50 E 10 17 29.84 1011 10 16 0.00 0.00
5:15 pm 17:15 Sunny 89 31.9 69 20.3 50 50 ENE 9 15 29.84 1011 10 16 0.00 0.00
5:35 pm 17:35 Sunny 88 31.3 71 21.6 56 56 ENE 9 15 29.85 1011 10 16 0.00 0.00
5:55 pm 17:55 Sunny 88 31.1 71 21.6 57 57 ENE 10 17 29.84 1010 10 16 0.00 0.00
6:15 pm 18:15 Sunny 87 30.7 71 21.4 58 58 ENE 10 17 29.84 1011 10 16 0.00 0.00
6:35 pm 18:35 Sunny 87 30.4 71 21.4 59 59 ENE 9 15 29.84 1011 10 16 0.00 0.00
6:55 pm 18:55 Sunny 86 30 70 21.3 60 60 ENE 10 17 29.85 1011 10 16 0.00 0.00
7:15 pm 19:15 Sunny 84 29.1 70 21.1 62 62 ENE 10 17 29.84 1011 10 16 0.00 0.00
7:35 pm 19:35 Sunny 83 28.3 70 21.3 66 66 ENE 9 15 29.85 1011 10 16 0.00 0.00
7:55 pm 19:55 Sunny 81 27.3 72 22.1 73 73 ENE 9 15 29.86 1011 10 16 0.00 0.00
8:15 pm 20:15 Sunny 80 26.5 72 22 76 76 ENE 12 19 29.87 1012 10 16 0.00 0.00
8:35 pm 20:35 Sunny 78 25.5 71 21.7 80 80 ENE 12 19 29.88 1012 10 16 0.00 0.00
8:55 pm 20:55 Clear 76 24.7 71 21.7 83 83 ENE 10 17 29.90 1013 10 16 0.00 0.00
9:15 pm 21:15 Clear 75 24 71 21.6 86 86 ENE 9 15 29.91 1013 10 16 0.00 0.00
9:35 pm 21:35 Clear 74 23.3 71 21.5 90 90 ENE 9 15 29.91 1013 10 16 0.00 0.00
9:55 pm 21:55 Clear 74 23.1 70 21.3 90 90 ENE 9 15 29.93 1014 10 16 0.00 0.00
10:15 pm 22:15 Clear 73 22.5 70 21 91 91 ENE 8 13 29.94 1014 10 16 0.00 0.00
10:35 pm 22:35 Clear 72 22.1 69 20.6 91 91 ENE 8 13 29.94 1014 10 16 0.00 0.00
10:55 pm 22:55 Clear 71 21.6 69 20.5 93 93 E 7 11 29.95 1014 10 16 0.00 0.00
11:15 pm 23:15 Clear 70 21.3 68 20.2 93 93 E 6 9 29.96 1014 10 16 0.00 0.00
11:35 pm 23:35 Clear 70 21 68 19.8 93 93 E 7 11 29.96 1015 10 16 0.00 0.00
11:55 pm 23:55 Clear 69 20.7 67 19.6 93 93 E 6 9 29.96 1015 10 16 0.00 0.00

Powered by AerisWeather